owner,sensor,date,latitude,longitude,vertical_datum,mass_concentration_of_oxygen_in_sea_water,qcFlag 
SCCF RECON,ioos:station:SCCF:11:1,2016-04-01T00:00:00Z,26.4679,-82.0631,2.1,6.67,1111122 
SCCF RECON,ioos:station:SCCF:11:1,2016-04-01T01:00:00Z,26.4679,-82.0631,2.04,6.64,1111122 
SCCF RECON,ioos:station:SCCF:11:1,2016-04-01T02:00:00Z,26.4679,-82.0631,1.96,7.61,1111122 
SCCF RECON,ioos:station:SCCF:11:1,2016-04-01T03:00:00Z,26.4679,-82.0631,1.86,8.36,1111122 
SCCF RECON,ioos:station:SCCF:11:1,2016-04-01T04:00:00Z,26.4679,-82.0631,1.77,8.01,1111122 
SCCF RECON,ioos:station:SCCF:11:1,2016-04-01T05:00:00Z,26.4679,-82.0631,1.69,7.61,1111122 
SCCF RECON,ioos:station:SCCF:11:1,2016-04-01T06:00:00Z,26.4679,-82.0631,1.6,7.3,1111122 
SCCF RECON,ioos:station:SCCF:11:1,2016-04-01T07:00:00Z,26.4679,-82.0631,1.55,6.86,1111122 
SCCF RECON,ioos:station:SCCF:11:1,2016-04-01T08:00:00Z,26.4679,-82.0631,1.57,6.55,1111122 
SCCF RECON,ioos:station:SCCF:11:1,2016-04-01T09:00:00Z,26.4679,-82.0631,1.65,6.19,1111122 
SCCF RECON,ioos:station:SCCF:11:1,2016-04-01T10:00:00Z,26.4679,-82.0631,1.75,6.6,1111122 
SCCF RECON,ioos:station:SCCF:11:1,2016-04-01T11:00:00Z,26.4679,-82.0631,1.83,6.69,1111122 
SCCF RECON,ioos:station:SCCF:11:1,2016-04-01T12:00:00Z,26.4679,-82.0631,1.9,6.55,1111122 
SCCF RECON,ioos:station:SCCF:11:1,2016-04-01T13:00:00Z,26.4679,-82.0631,1.962,6.18,1111122 
SCCF RECON,ioos:station:SCCF:11:1,2016-04-01T14:00:00Z,26.4679,-82.0631,1.992,6.26,1111122 
SCCF RECON,ioos:station:SCCF:11:1,2016-04-01T15:00:00Z,26.4679,-82.0631,1.981,6.36,1111122 
SCCF RECON,ioos:station:SCCF:11:1,2016-04-01T16:00:00Z,26.4679,-82.0631,1.941,6.37,1111122 
SCCF RECON,ioos:station:SCCF:11:1,2016-04-01T17:00:00Z,26.4679,-82.0631,1.903,6.81,1111122 
SCCF RECON,ioos:station:SCCF:11:1,2016-04-01T18:00:00Z,26.4679,-82.0631,1.899,7.57,1111122 
SCCF RECON,ioos:station:SCCF:11:1,2016-04-01T19:00:00Z,26.4679,-82.0631,1.893,7.12,1111122 
SCCF RECON,ioos:station:SCCF:11:1,2016-04-01T20:00:00Z,26.4679,-82.0631,1.894,7.53,1111122 
SCCF RECON,ioos:station:SCCF:11:1,2016-04-01T21:00:00Z,26.4679,-82.0631,1.949,7.14,1111122 
SCCF RECON,ioos:station:SCCF:11:1,2016-04-01T22:00:00Z,26.4679,-82.0631,1.99,7.05,1111122 
SCCF RECON,ioos:station:SCCF:11:1,2016-04-01T23:00:00Z,26.4679,-82.0631,2.0,7.01,1111122 
SCCF RECON,ioos:station:SCCF:11:1,2016-04-02T00:00:00Z,26.4679,-82.0631,2.03,6.94,1111122 
SCCF RECON,ioos:station:SCCF:11:1,2016-04-02T01:00:00Z,26.4679,-82.0631,2.03,6.68,1111122 
SCCF RECON,ioos:station:SCCF:11:1,2016-04-02T02:00:00Z,26.4679,-82.0631,2.013,6.76,1111122 
SCCF RECON,ioos:station:SCCF:11:1,2016-04-02T03:00:00Z,26.4679,-82.0631,1.98,6.52,1111122 
SCCF RECON,ioos:station:SCCF:11:1,2016-04-02T04:00:00Z,26.4679,-82.0631,1.886,6.87,1111122 
SCCF RECON,ioos:station:SCCF:11:1,2016-04-02T05:00:00Z,26.4679,-82.0631,1.75,7.05,1111122 
SCCF RECON,ioos:station:SCCF:11:1,2016-04-02T06:00:00Z,26.4679,-82.0631,1.63,6.62,1111122 
SCCF RECON,ioos:station:SCCF:11:1,2016-04-02T07:00:00Z,26.4679,-82.0631,1.525,6.53,1111122 
SCCF RECON,ioos:station:SCCF:11:1,2016-04-02T08:00:00Z,26.4679,-82.0631,1.49,6.31,1111122 
SCCF RECON,ioos:station:SCCF:11:1,2016-04-02T09:00:00Z,26.4679,-82.0631,1.51,5.9,1111122 
SCCF RECON,ioos:station:SCCF:11:1,2016-04-02T10:00:00Z,26.4679,-82.0631,1.63,6.01,1111122 
SCCF RECON,ioos:station:SCCF:11:1,2016-04-02T11:00:00Z,26.4679,-82.0631,1.768,5.89,1111122 
SCCF RECON,ioos:station:SCCF:11:1,2016-04-02T12:00:00Z,26.4679,-82.0631,1.851,5.84,1111122 
SCCF RECON,ioos:station:SCCF:11:1,2016-04-02T13:00:00Z,26.4679,-82.0631,1.952,5.8,1111122 
SCCF RECON,ioos:station:SCCF:11:1,2016-04-02T14:00:00Z,26.4679,-82.0631,2.011,6.11,1111122 
SCCF RECON,ioos:station:SCCF:11:1,2016-04-02T15:00:00Z,26.4679,-82.0631,2.05,6.17,1111122 
SCCF RECON,ioos:station:SCCF:11:1,2016-04-02T16:00:00Z,26.4679,-82.0631,2.062,6.22,1111122 
SCCF RECON,ioos:station:SCCF:11:1,2016-04-02T17:00:00Z,26.4679,-82.0631,2.006,6.31,1111122 
SCCF RECON,ioos:station:SCCF:11:1,2016-04-02T18:00:00Z,26.4679,-82.0631,1.882,7.03,1111122 
SCCF RECON,ioos:station:SCCF:11:1,2016-04-02T19:00:00Z,26.4679,-82.0631,1.808,7.25,1111122 
SCCF RECON,ioos:station:SCCF:11:1,2016-04-02T20:00:00Z,26.4679,-82.0631,1.78,7.08,1111122 
SCCF RECON,ioos:station:SCCF:11:1,2016-04-02T21:00:00Z,26.4679,-82.0631,1.78,6.87,1111122 
SCCF RECON,ioos:station:SCCF:11:1,2016-04-02T22:00:00Z,26.4679,-82.0631,1.82,7.26,1111122 
SCCF RECON,ioos:station:SCCF:11:1,2016-04-02T23:00:00Z,26.4679,-82.0631,1.909,6.37,1111122 
SCCF RECON,ioos:station:SCCF:11:1,2016-04-03T00:00:00Z,26.4679,-82.0631,2.011,6.19,1111122 
SCCF RECON,ioos:station:SCCF:11:1,2016-04-03T01:00:00Z,26.4679,-82.0631,2.051,5.94,1111122 
SCCF RECON,ioos:station:SCCF:11:1,2016-04-03T02:00:00Z,26.4679,-82.0631,2.066,6.41,1111122 
SCCF RECON,ioos:station:SCCF:11:1,2016-04-03T03:00:00Z,26.4679,-82.0631,1.97,6.41,1111122 
SCCF RECON,ioos:station:SCCF:11:1,2016-04-03T04:00:00Z,26.4679,-82.0631,1.87,6.22,1111122 
SCCF RECON,ioos:station:SCCF:11:1,2016-04-03T05:00:00Z,26.4679,-82.0631,1.78,6.05,1111122 
SCCF RECON,ioos:station:SCCF:11:1,2016-04-03T06:00:00Z,26.4679,-82.0631,1.682,5.93,1111122 
SCCF RECON,ioos:station:SCCF:11:1,2016-04-03T07:00:00Z,26.4679,-82.0631,1.61,5.83,1111122 
SCCF RECON,ioos:station:SCCF:11:1,2016-04-03T08:00:00Z,26.4679,-82.0631,1.508,5.5,1111122 
SCCF RECON,ioos:station:SCCF:11:1,2016-04-03T09:00:00Z,26.4679,-82.0631,1.43,5.33,1111122 
SCCF RECON,ioos:station:SCCF:11:1,2016-04-03T10:00:00Z,26.4679,-82.0631,1.407,5.34,1111122 
SCCF RECON,ioos:station:SCCF:11:1,2016-04-03T11:00:00Z,26.4679,-82.0631,1.46,5.71,1111122 
SCCF RECON,ioos:station:SCCF:11:1,2016-04-03T12:00:00Z,26.4679,-82.0631,1.53,5.77,1111122 
SCCF RECON,ioos:station:SCCF:11:1,2016-04-03T13:00:00Z,26.4679,-82.0631,1.637,6.0,1111122 
SCCF RECON,ioos:station:SCCF:11:1,2016-04-03T14:00:00Z,26.4679,-82.0631,1.732,6.33,1111122 
SCCF RECON,ioos:station:SCCF:11:1,2016-04-03T15:00:00Z,26.4679,-82.0631,1.771,6.48,1111122 
SCCF RECON,ioos:station:SCCF:11:1,2016-04-03T16:00:00Z,26.4679,-82.0631,1.85,6.44,1111122 
SCCF RECON,ioos:station:SCCF:11:1,2016-04-03T17:00:00Z,26.4679,-82.0631,1.836,6.77,1111122 
SCCF RECON,ioos:station:SCCF:11:1,2016-04-03T18:00:00Z,26.4679,-82.0631,1.75,6.69,1111122 
SCCF RECON,ioos:station:SCCF:11:1,2016-04-03T19:00:00Z,26.4679,-82.0631,1.667,7.41,1111122 
SCCF RECON,ioos:station:SCCF:11:1,2016-04-03T20:00:00Z,26.4679,-82.0631,1.6,8.0,1111122 
SCCF RECON,ioos:station:SCCF:11:1,2016-04-03T21:00:00Z,26.4679,-82.0631,1.588,8.09,1111122 
SCCF RECON,ioos:station:SCCF:11:1,2016-04-03T22:00:00Z,26.4679,-82.0631,1.645,8.46,1111122 
SCCF RECON,ioos:station:SCCF:11:1,2016-04-03T23:00:00Z,26.4679,-82.0631,1.75,7.9,1111122 
SCCF RECON,ioos:station:SCCF:11:1,2016-04-04T00:00:00Z,26.4679,-82.0631,1.87,7.54,1111122 
SCCF RECON,ioos:station:SCCF:11:1,2016-04-04T01:00:00Z,26.4679,-82.0631,1.97,6.81,1111122 
SCCF RECON,ioos:station:SCCF:11:1,2016-04-04T02:00:00Z,26.4679,-82.0631,2.042,6.92,1111122 
SCCF RECON,ioos:station:SCCF:11:1,2016-04-04T03:00:00Z,26.4679,-82.0631,2.09,6.25,1111122 
SCCF RECON,ioos:station:SCCF:11:1,2016-04-04T04:00:00Z,26.4679,-82.0631,2.08,6.04,1111122 
SCCF RECON,ioos:station:SCCF:11:1,2016-04-04T05:00:00Z,26.4679,-82.0631,1.978,6.43,1111122 
SCCF RECON,ioos:station:SCCF:11:1,2016-04-04T06:00:00Z,26.4679,-82.0631,1.838,6.81,1111122 
SCCF RECON,ioos:station:SCCF:11:1,2016-04-04T07:00:00Z,26.4679,-82.0631,1.693,6.57,1111122 
SCCF RECON,ioos:station:SCCF:11:1,2016-04-04T08:00:00Z,26.4679,-82.0631,1.569,6.35,1111122 
SCCF RECON,ioos:station:SCCF:11:1,2016-04-04T09:00:00Z,26.4679,-82.0631,1.49,6.07,1111122 
SCCF RECON,ioos:station:SCCF:11:1,2016-04-04T10:00:00Z,26.4679,-82.0631,1.443,5.95,1111122 
SCCF RECON,ioos:station:SCCF:11:1,2016-04-04T11:00:00Z,26.4679,-82.0631,1.47,5.8,1111122 
SCCF RECON,ioos:station:SCCF:11:1,2016-04-04T12:00:00Z,26.4679,-82.0631,1.6,5.91,1111122 
SCCF RECON,ioos:station:SCCF:11:1,2016-04-04T13:00:00Z,26.4679,-82.0631,1.749,6.31,1111122 
SCCF RECON,ioos:station:SCCF:11:1,2016-04-04T14:00:00Z,26.4679,-82.0631,1.869,6.46,1111122 
SCCF RECON,ioos:station:SCCF:11:1,2016-04-04T15:00:00Z,26.4679,-82.0631,1.965,6.23,1111122 
SCCF RECON,ioos:station:SCCF:11:1,2016-04-04T16:00:00Z,26.4679,-82.0631,2.05,6.41,1111122 
SCCF RECON,ioos:station:SCCF:11:1,2016-04-04T17:00:00Z,26.4679,-82.0631,2.029,6.54,1111122 
SCCF RECON,ioos:station:SCCF:11:1,2016-04-04T18:00:00Z,26.4679,-82.0631,1.91,6.53,1111122 
SCCF RECON,ioos:station:SCCF:11:1,2016-04-04T19:00:00Z,26.4679,-82.0631,1.771,6.96,1111122 
SCCF RECON,ioos:station:SCCF:11:1,2016-04-04T20:00:00Z,26.4679,-82.0631,1.656,6.92,1111122 
SCCF RECON,ioos:station:SCCF:11:1,2016-04-04T21:00:00Z,26.4679,-82.0631,1.56,7.79,1111122 
SCCF RECON,ioos:station:SCCF:11:1,2016-04-04T22:00:00Z,26.4679,-82.0631,1.54,8.28,1111122 
SCCF RECON,ioos:station:SCCF:11:1,2016-04-04T23:00:00Z,26.4679,-82.0631,1.6,8.06,1111122 
SCCF RECON,ioos:station:SCCF:11:1,2016-04-05T00:00:00Z,26.4679,-82.0631,1.75,7.42,1111122 
SCCF RECON,ioos:station:SCCF:11:1,2016-04-05T01:00:00Z,26.4679,-82.0631,1.89,7.22,1111122 
SCCF RECON,ioos:station:SCCF:11:1,2016-04-05T02:00:00Z,26.4679,-82.0631,1.992,7.15,1111122 
SCCF RECON,ioos:station:SCCF:11:1,2016-04-05T03:00:00Z,26.4679,-82.0631,2.082,6.96,1111122 
SCCF RECON,ioos:station:SCCF:11:1,2016-04-05T04:00:00Z,26.4679,-82.0631,2.13,6.77,1111122 
SCCF RECON,ioos:station:SCCF:11:1,2016-04-05T05:00:00Z,26.4679,-82.0631,2.102,6.72,1111122 
SCCF RECON,ioos:station:SCCF:11:1,2016-04-05T06:00:00Z,26.4679,-82.0631,1.97,6.6,1111122 
SCCF RECON,ioos:station:SCCF:11:1,2016-04-05T07:00:00Z,26.4679,-82.0631,1.81,6.34,1111122 
SCCF RECON,ioos:station:SCCF:11:1,2016-04-05T08:00:00Z,26.4679,-82.0631,1.66,6.04,1111122 
SCCF RECON,ioos:station:SCCF:11:1,2016-04-05T09:00:00Z,26.4679,-82.0631,1.541,5.88,1111122 
SCCF RECON,ioos:station:SCCF:11:1,2016-04-05T10:00:00Z,26.4679,-82.0631,1.443,5.69,1111122 
SCCF RECON,ioos:station:SCCF:11:1,2016-04-05T11:00:00Z,26.4679,-82.0631,1.4,5.6,1111122 
SCCF RECON,ioos:station:SCCF:11:1,2016-04-05T12:00:00Z,26.4679,-82.0631,1.468,5.86,1111122 
SCCF RECON,ioos:station:SCCF:11:1,2016-04-05T13:00:00Z,26.4679,-82.0631,1.616,5.79,1111122 
SCCF RECON,ioos:station:SCCF:11:1,2016-04-05T14:00:00Z,26.4679,-82.0631,1.791,6.2,1111122 
SCCF RECON,ioos:station:SCCF:11:1,2016-04-05T15:00:00Z,26.4679,-82.0631,1.933,6.61,1111122 
SCCF RECON,ioos:station:SCCF:11:1,2016-04-05T16:00:00Z,26.4679,-82.0631,2.042,6.75,1111122 
SCCF RECON,ioos:station:SCCF:11:1,2016-04-05T17:00:00Z,26.4679,-82.0631,2.077,6.84,1111122 
SCCF RECON,ioos:station:SCCF:11:1,2016-04-05T18:00:00Z,26.4679,-82.0631,2.023,7.02,1111122 
SCCF RECON,ioos:station:SCCF:11:1,2016-04-05T19:00:00Z,26.4679,-82.0631,1.885,7.17,1111122 
SCCF RECON,ioos:station:SCCF:11:1,2016-04-05T20:00:00Z,26.4679,-82.0631,1.739,7.64,1111122 
SCCF RECON,ioos:station:SCCF:11:1,2016-04-05T21:00:00Z,26.4679,-82.0631,1.613,7.88,1111122 
SCCF RECON,ioos:station:SCCF:11:1,2016-04-05T22:00:00Z,26.4679,-82.0631,1.526,7.96,1111122 
SCCF RECON,ioos:station:SCCF:11:1,2016-04-05T23:00:00Z,26.4679,-82.0631,1.507,8.53,1111122 
SCCF RECON,ioos:station:SCCF:11:1,2016-04-06T00:00:00Z,26.4679,-82.0631,1.593,8.05,1111122 
SCCF RECON,ioos:station:SCCF:11:1,2016-04-06T01:00:00Z,26.4679,-82.0631,1.75,7.55,1111122 
SCCF RECON,ioos:station:SCCF:11:1,2016-04-06T02:00:00Z,26.4679,-82.0631,1.92,7.45,1111122 
SCCF RECON,ioos:station:SCCF:11:1,2016-04-06T03:00:00Z,26.4679,-82.0631,2.052,7.39,1111122 
SCCF RECON,ioos:station:SCCF:11:1,2016-04-06T04:00:00Z,26.4679,-82.0631,2.14,7.16,1111122 
SCCF RECON,ioos:station:SCCF:11:1,2016-04-06T05:00:00Z,26.4679,-82.0631,2.16,6.95,1111122 
SCCF RECON,ioos:station:SCCF:11:1,2016-04-06T06:00:00Z,26.4679,-82.0631,2.1,6.75,1111122 
SCCF RECON,ioos:station:SCCF:11:1,2016-04-06T07:00:00Z,26.4679,-82.0631,1.971,6.6,1111122 
SCCF RECON,ioos:station:SCCF:11:1,2016-04-06T08:00:00Z,26.4679,-82.0631,1.818,6.42,1111122 
SCCF RECON,ioos:station:SCCF:11:1,2016-04-06T09:00:00Z,26.4679,-82.0631,1.668,6.16,1111122 
SCCF RECON,ioos:station:SCCF:11:1,2016-04-06T10:00:00Z,26.4679,-82.0631,1.534,5.88,1111122 
SCCF RECON,ioos:station:SCCF:11:1,2016-04-06T11:00:00Z,26.4679,-82.0631,1.447,5.56,1111122 
SCCF RECON,ioos:station:SCCF:11:1,2016-04-06T12:00:00Z,26.4679,-82.0631,1.44,5.31,1111122 
SCCF RECON,ioos:station:SCCF:11:1,2016-04-06T13:00:00Z,26.4679,-82.0631,1.59,5.97,1111122 
SCCF RECON,ioos:station:SCCF:11:1,2016-04-06T14:00:00Z,26.4679,-82.0631,1.787,6.48,1111122 
SCCF RECON,ioos:station:SCCF:11:1,2016-04-06T15:00:00Z,26.4679,-82.0631,1.933,6.73,1111122 
SCCF RECON,ioos:station:SCCF:11:1,2016-04-06T16:00:00Z,26.4679,-82.0631,2.031,6.9,1111122 
SCCF RECON,ioos:station:SCCF:11:1,2016-04-06T17:00:00Z,26.4679,-82.0631,2.11,6.79,1111122 
SCCF RECON,ioos:station:SCCF:11:1,2016-04-06T18:00:00Z,26.4679,-82.0631,2.121,7.01,1111122 
SCCF RECON,ioos:station:SCCF:11:1,2016-04-06T19:00:00Z,26.4679,-82.0631,2.044,7.15,1111122 
SCCF RECON,ioos:station:SCCF:11:1,2016-04-06T20:00:00Z,26.4679,-82.0631,1.9,7.13,1111122 
SCCF RECON,ioos:station:SCCF:11:1,2016-04-06T21:00:00Z,26.4679,-82.0631,1.78,7.62,1111122 
SCCF RECON,ioos:station:SCCF:11:1,2016-04-06T22:00:00Z,26.4679,-82.0631,1.6,7.34,1111122 
SCCF RECON,ioos:station:SCCF:11:1,2016-04-06T23:00:00Z,26.4679,-82.0631,1.498,7.27,1111122 
SCCF RECON,ioos:station:SCCF:11:1,2016-04-07T00:00:00Z,26.4679,-82.0631,1.46,7.21,1111122 
SCCF RECON,ioos:station:SCCF:11:1,2016-04-07T01:00:00Z,26.4679,-82.0631,1.59,7.09,1111122 
SCCF RECON,ioos:station:SCCF:11:1,2016-04-07T02:00:00Z,26.4679,-82.0631,1.79,7.06,1111122 
SCCF RECON,ioos:station:SCCF:11:1,2016-04-07T03:00:00Z,26.4679,-82.0631,1.939,6.96,1111122 
SCCF RECON,ioos:station:SCCF:11:1,2016-04-07T04:00:00Z,26.4679,-82.0631,2.06,6.94,1111122 
SCCF RECON,ioos:station:SCCF:11:1,2016-04-07T05:00:00Z,26.4679,-82.0631,2.196,6.77,1111122 
SCCF RECON,ioos:station:SCCF:11:1,2016-04-07T06:00:00Z,26.4679,-82.0631,2.25,6.65,1111122 
SCCF RECON,ioos:station:SCCF:11:1,2016-04-07T07:00:00Z,26.4679,-82.0631,2.18,6.53,1111122 
SCCF RECON,ioos:station:SCCF:11:1,2016-04-07T08:00:00Z,26.4679,-82.0631,2.029,6.35,1111122 
SCCF RECON,ioos:station:SCCF:11:1,2016-04-07T09:00:00Z,26.4679,-82.0631,1.86,6.07,1111122 
SCCF RECON,ioos:station:SCCF:11:1,2016-04-07T10:00:00Z,26.4679,-82.0631,1.75,5.84,1111122 
SCCF RECON,ioos:station:SCCF:11:1,2016-04-07T11:00:00Z,26.4679,-82.0631,1.64,5.68,1111122 
SCCF RECON,ioos:station:SCCF:11:1,2016-04-07T12:00:00Z,26.4679,-82.0631,1.6,5.51,1111122 
SCCF RECON,ioos:station:SCCF:11:1,2016-04-07T13:00:00Z,26.4679,-82.0631,1.671,5.83,1111122 
SCCF RECON,ioos:station:SCCF:11:1,2016-04-07T14:00:00Z,26.4679,-82.0631,1.869,6.28,1111122 
SCCF RECON,ioos:station:SCCF:11:1,2016-04-07T15:00:00Z,26.4679,-82.0631,2.05,6.54,1111122 
SCCF RECON,ioos:station:SCCF:11:1,2016-04-07T16:00:00Z,26.4679,-82.0631,2.16,6.47,1111122 
SCCF RECON,ioos:station:SCCF:11:1,2016-04-07T17:00:00Z,26.4679,-82.0631,2.239,6.67,1111122 
SCCF RECON,ioos:station:SCCF:11:1,2016-04-07T18:00:00Z,26.4679,-82.0631,2.27,6.79,1111122 
SCCF RECON,ioos:station:SCCF:11:1,2016-04-07T19:00:00Z,26.4679,-82.0631,2.22,7.64,1111122 
SCCF RECON,ioos:station:SCCF:11:1,2016-04-07T20:00:00Z,26.4679,-82.0631,2.06,7.55,1111122 
SCCF RECON,ioos:station:SCCF:11:1,2016-04-07T21:00:00Z,26.4679,-82.0631,1.88,7.77,1111122 
SCCF RECON,ioos:station:SCCF:11:1,2016-04-07T22:00:00Z,26.4679,-82.0631,1.735,7.68,1111122 
SCCF RECON,ioos:station:SCCF:11:1,2016-04-07T23:00:00Z,26.4679,-82.0631,1.593,7.51,1111122 
SCCF RECON,ioos:station:SCCF:11:1,2016-04-08T00:00:00Z,26.4679,-82.0631,1.47,7.33,1111122 
SCCF RECON,ioos:station:SCCF:11:1,2016-04-08T01:00:00Z,26.4679,-82.0631,1.438,7.04,1111122 
SCCF RECON,ioos:station:SCCF:11:1,2016-04-08T02:00:00Z,26.4679,-82.0631,1.569,6.91,1111122 
SCCF RECON,ioos:station:SCCF:11:1,2016-04-08T03:00:00Z,26.4679,-82.0631,1.79,7.02,1111122 
SCCF RECON,ioos:station:SCCF:11:1,2016-04-08T04:00:00Z,26.4679,-82.0631,1.96,6.88,1111122 
SCCF RECON,ioos:station:SCCF:11:1,2016-04-08T05:00:00Z,26.4679,-82.0631,2.1,6.81,1111122 
SCCF RECON,ioos:station:SCCF:11:1,2016-04-08T06:00:00Z,26.4679,-82.0631,2.188,6.66,1111122 
SCCF RECON,ioos:station:SCCF:11:1,2016-04-08T07:00:00Z,26.4679,-82.0631,2.22,6.62,1111122 
SCCF RECON,ioos:station:SCCF:11:1,2016-04-08T08:00:00Z,26.4679,-82.0631,2.13,6.54,1111122 
SCCF RECON,ioos:station:SCCF:11:1,2016-04-08T09:00:00Z,26.4679,-82.0631,1.97,6.22,1111122 
SCCF RECON,ioos:station:SCCF:11:1,2016-04-08T10:00:00Z,26.4679,-82.0631,1.85,5.8,1111122 
SCCF RECON,ioos:station:SCCF:11:1,2016-04-08T11:00:00Z,26.4679,-82.0631,1.76,5.56,1111122 
SCCF RECON,ioos:station:SCCF:11:1,2016-04-08T12:00:00Z,26.4679,-82.0631,1.663,5.32,1111122 
SCCF RECON,ioos:station:SCCF:11:1,2016-04-08T13:00:00Z,26.4679,-82.0631,1.66,5.38,1111122 
SCCF RECON,ioos:station:SCCF:11:1,2016-04-08T14:00:00Z,26.4679,-82.0631,1.79,5.75,1111122 
SCCF RECON,ioos:station:SCCF:11:1,2016-04-08T15:00:00Z,26.4679,-82.0631,1.99,5.87,1111122 
SCCF RECON,ioos:station:SCCF:11:1,2016-04-08T16:00:00Z,26.4679,-82.0631,2.14,6.57,1111122 
SCCF RECON,ioos:station:SCCF:11:1,2016-04-08T17:00:00Z,26.4679,-82.0631,2.24,6.86,1111122 
SCCF RECON,ioos:station:SCCF:11:1,2016-04-08T18:00:00Z,26.4679,-82.0631,2.316,6.61,1111122 
SCCF RECON,ioos:station:SCCF:11:1,2016-04-08T19:00:00Z,26.4679,-82.0631,2.3,6.48,1111122 
SCCF RECON,ioos:station:SCCF:11:1,2016-04-08T20:00:00Z,26.4679,-82.0631,2.189,7.07,1111122 
SCCF RECON,ioos:station:SCCF:11:1,2016-04-08T21:00:00Z,26.4679,-82.0631,1.991,7.24,1111122 
SCCF RECON,ioos:station:SCCF:11:1,2016-04-08T22:00:00Z,26.4679,-82.0631,1.824,7.28,1111122 
SCCF RECON,ioos:station:SCCF:11:1,2016-04-08T23:00:00Z,26.4679,-82.0631,1.67,7.13,1111122 
SCCF RECON,ioos:station:SCCF:11:1,2016-04-09T00:00:00Z,26.4679,-82.0631,1.52,6.87,1111122 
SCCF RECON,ioos:station:SCCF:11:1,2016-04-09T01:00:00Z,26.4679,-82.0631,1.409,6.56,1111122 
SCCF RECON,ioos:station:SCCF:11:1,2016-04-09T02:00:00Z,26.4679,-82.0631,1.39,6.83,1111122 
SCCF RECON,ioos:station:SCCF:11:1,2016-04-09T03:00:00Z,26.4679,-82.0631,1.53,6.54,1111122 
SCCF RECON,ioos:station:SCCF:11:1,2016-04-09T04:00:00Z,26.4679,-82.0631,1.75,6.6,1111122 
SCCF RECON,ioos:station:SCCF:11:1,2016-04-09T05:00:00Z,26.4679,-82.0631,1.92,6.56,1111122 
SCCF RECON,ioos:station:SCCF:11:1,2016-04-09T06:00:00Z,26.4679,-82.0631,2.04,6.47,1111122 
SCCF RECON,ioos:station:SCCF:11:1,2016-04-09T07:00:00Z,26.4679,-82.0631,2.141,6.51,1111122 
SCCF RECON,ioos:station:SCCF:11:1,2016-04-09T08:00:00Z,26.4679,-82.0631,2.16,6.1,1111122 
SCCF RECON,ioos:station:SCCF:11:1,2016-04-09T09:00:00Z,26.4679,-82.0631,2.049,6.17,1111122 
SCCF RECON,ioos:station:SCCF:11:1,2016-04-09T10:00:00Z,26.4679,-82.0631,1.88,5.84,1111122 
SCCF RECON,ioos:station:SCCF:11:1,2016-04-09T11:00:00Z,26.4679,-82.0631,1.77,5.62,1111122 
SCCF RECON,ioos:station:SCCF:11:1,2016-04-09T12:00:00Z,26.4679,-82.0631,1.681,5.48,1111122 
SCCF RECON,ioos:station:SCCF:11:1,2016-04-09T13:00:00Z,26.4679,-82.0631,1.6,5.49,1111122 
SCCF RECON,ioos:station:SCCF:11:1,2016-04-09T14:00:00Z,26.4679,-82.0631,1.58,5.45,1111122 
SCCF RECON,ioos:station:SCCF:11:1,2016-04-09T15:00:00Z,26.4679,-82.0631,1.671,6.11,1111122 
SCCF RECON,ioos:station:SCCF:11:1,2016-04-09T16:00:00Z,26.4679,-82.0631,1.849,6.11,1111122 
SCCF RECON,ioos:station:SCCF:11:1,2016-04-09T17:00:00Z,26.4679,-82.0631,2.004,6.86,1111122 
SCCF RECON,ioos:station:SCCF:11:1,2016-04-09T18:00:00Z,26.4679,-82.0631,2.09,6.93,1111122 
SCCF RECON,ioos:station:SCCF:11:1,2016-04-09T19:00:00Z,26.4679,-82.0631,2.14,7.22,1111122 
SCCF RECON,ioos:station:SCCF:11:1,2016-04-09T20:00:00Z,26.4679,-82.0631,2.111,7.52,1111122 
SCCF RECON,ioos:station:SCCF:11:1,2016-04-09T21:00:00Z,26.4679,-82.0631,1.95,7.54,1111122 
SCCF RECON,ioos:station:SCCF:11:1,2016-04-09T22:00:00Z,26.4679,-82.0631,1.78,7.89,1111122 
SCCF RECON,ioos:station:SCCF:11:1,2016-04-09T23:00:00Z,26.4679,-82.0631,1.647,7.95,1111122 
SCCF RECON,ioos:station:SCCF:11:1,2016-04-10T00:00:00Z,26.4679,-82.0631,1.54,7.67,1111122 
SCCF RECON,ioos:station:SCCF:11:1,2016-04-10T01:00:00Z,26.4679,-82.0631,1.418,7.32,1111122 
SCCF RECON,ioos:station:SCCF:11:1,2016-04-10T02:00:00Z,26.4679,-82.0631,1.32,6.99,1111122 
SCCF RECON,ioos:station:SCCF:11:1,2016-04-10T03:00:00Z,26.4679,-82.0631,1.3,6.76,1111122 
SCCF RECON,ioos:station:SCCF:11:1,2016-04-10T04:00:00Z,26.4679,-82.0631,1.42,6.63,1111122 
SCCF RECON,ioos:station:SCCF:11:1,2016-04-10T05:00:00Z,26.4679,-82.0631,1.62,6.8,1111122 
SCCF RECON,ioos:station:SCCF:11:1,2016-04-10T06:00:00Z,26.4679,-82.0631,1.785,6.76,1111122 
SCCF RECON,ioos:station:SCCF:11:1,2016-04-10T07:00:00Z,26.4679,-82.0631,1.909,6.73,1111122 
SCCF RECON,ioos:station:SCCF:11:1,2016-04-10T08:00:00Z,26.4679,-82.0631,1.98,6.73,1111122 
SCCF RECON,ioos:station:SCCF:11:1,2016-04-10T09:00:00Z,26.4679,-82.0631,2.004,6.63,1111122 
SCCF RECON,ioos:station:SCCF:11:1,2016-04-10T10:00:00Z,26.4679,-82.0631,1.918,6.21,1111122 
SCCF RECON,ioos:station:SCCF:11:1,2016-04-10T11:00:00Z,26.4679,-82.0631,1.8,6.14,1111122 
SCCF RECON,ioos:station:SCCF:11:1,2016-04-10T12:00:00Z,26.4679,-82.0631,1.71,5.9,1111122 
SCCF RECON,ioos:station:SCCF:11:1,2016-04-10T13:00:00Z,26.4679,-82.0631,1.65,5.74,1111122 
SCCF RECON,ioos:station:SCCF:11:1,2016-04-10T14:00:00Z,26.4679,-82.0631,1.63,6.38,1111122 
SCCF RECON,ioos:station:SCCF:11:1,2016-04-10T15:00:00Z,26.4679,-82.0631,1.69,5.9,1111122 
SCCF RECON,ioos:station:SCCF:11:1,2016-04-10T16:00:00Z,26.4679,-82.0631,1.84,6.68,1111122 
SCCF RECON,ioos:station:SCCF:11:1,2016-04-10T17:00:00Z,26.4679,-82.0631,2.0,7.2,1111122 
SCCF RECON,ioos:station:SCCF:11:1,2016-04-10T18:00:00Z,26.4679,-82.0631,2.1,7.35,1111122 
SCCF RECON,ioos:station:SCCF:11:1,2016-04-10T19:00:00Z,26.4679,-82.0631,2.18,7.12,1111122 
SCCF RECON,ioos:station:SCCF:11:1,2016-04-10T20:00:00Z,26.4679,-82.0631,2.239,7.22,1111122 
SCCF RECON,ioos:station:SCCF:11:1,2016-04-10T21:00:00Z,26.4679,-82.0631,2.19,7.13,1111122 
SCCF RECON,ioos:station:SCCF:11:1,2016-04-10T22:00:00Z,26.4679,-82.0631,2.06,7.89,1111122 
SCCF RECON,ioos:station:SCCF:11:1,2016-04-10T23:00:00Z,26.4679,-82.0631,1.89,7.61,1111122 
SCCF RECON,ioos:station:SCCF:11:1,2016-04-11T00:00:00Z,26.4679,-82.0631,1.73,7.47,1111122 
SCCF RECON,ioos:station:SCCF:11:1,2016-04-11T01:00:00Z,26.4679,-82.0631,1.58,7.2,1111122 
SCCF RECON,ioos:station:SCCF:11:1,2016-04-11T02:00:00Z,26.4679,-82.0631,1.46,6.99,1111122 
SCCF RECON,ioos:station:SCCF:11:1,2016-04-11T03:00:00Z,26.4679,-82.0631,1.37,6.8,1111122 
SCCF RECON,ioos:station:SCCF:11:1,2016-04-11T04:00:00Z,26.4679,-82.0631,1.38,6.79,1111122 
SCCF RECON,ioos:station:SCCF:11:1,2016-04-11T05:00:00Z,26.4679,-82.0631,1.51,6.83,1111122 
SCCF RECON,ioos:station:SCCF:11:1,2016-04-11T06:00:00Z,26.4679,-82.0631,1.67,6.92,1111122 
SCCF RECON,ioos:station:SCCF:11:1,2016-04-11T07:00:00Z,26.4679,-82.0631,1.79,6.8,1111122 
SCCF RECON,ioos:station:SCCF:11:1,2016-04-11T08:00:00Z,26.4679,-82.0631,1.87,6.72,1111122 
SCCF RECON,ioos:station:SCCF:11:1,2016-04-11T09:00:00Z,26.4679,-82.0631,1.93,6.68,1111122 
SCCF RECON,ioos:station:SCCF:11:1,2016-04-11T10:00:00Z,26.4679,-82.0631,1.95,6.63,1111122 
SCCF RECON,ioos:station:SCCF:11:1,2016-04-11T11:00:00Z,26.4679,-82.0631,1.94,6.47,1111122 
SCCF RECON,ioos:station:SCCF:11:1,2016-04-11T12:00:00Z,26.4679,-82.0631,1.91,6.18,1111122 
SCCF RECON,ioos:station:SCCF:11:1,2016-04-11T13:00:00Z,26.4679,-82.0631,1.88,6.23,1111122 
SCCF RECON,ioos:station:SCCF:11:1,2016-04-11T14:00:00Z,26.4679,-82.0631,1.86,6.27,1111122 
SCCF RECON,ioos:station:SCCF:11:1,2016-04-11T15:00:00Z,26.4679,-82.0631,1.86,6.31,1111122 
SCCF RECON,ioos:station:SCCF:11:1,2016-04-11T16:00:00Z,26.4679,-82.0631,1.903,6.73,1111122 
SCCF RECON,ioos:station:SCCF:11:1,2016-04-11T17:00:00Z,26.4679,-82.0631,2.01,6.93,1111122 
SCCF RECON,ioos:station:SCCF:11:1,2016-04-11T18:00:00Z,26.4679,-82.0631,2.11,6.94,1111122 
SCCF RECON,ioos:station:SCCF:11:1,2016-04-11T19:00:00Z,26.4679,-82.0631,2.2,6.98,1111122 
SCCF RECON,ioos:station:SCCF:11:1,2016-04-11T20:00:00Z,26.4679,-82.0631,2.24,6.87,1111122 